FLOCK 4Q 29

导读 | 星芒AI

FLOCK 4Q 29 是由 Planet Labs 公司发射的 Dove 系列小型地球观测卫星之一,属于 Flock 4Q 卫星组的一部分。该卫星主要用于高分辨率光学成像,支持全球范围内的日常地球观测任务,广泛应用于环境监测、农业管理、灾害评估等领域。FLOCK 4Q 29 于 2017 年发射,运行在低地球轨道,具备多光谱成像能力,为用户提供快速、频繁的图像更新服务。

基本信息
目录编号:
58304
目录名称:
FLOCK 4Q 29
国际标识:
2023-174BA
轨道中心:
EARTH
卫星名称:
FLOCK 4Q 29
卫星全名:
--
卫星状态:
在轨 (已飞行757 天)
发射日期:
2023-11-11 UTC
国别 :
美国 (US)
星等 :
--
轨道信息
数据来源 国际轨道数据
星历时间: 2025-12-07T02:59:38+0800
21小时前
查看轨道信息
半长轴: 6814.062km
偏心率: 0.0008251
轨道倾角: 97.408°
近地点辐角 117.708°
升交点赤经 62.597°
平近点角 242.500°
近地点: 430.304km
远地点: 441.55km
周期: 93.297分钟
每日圈数: 15.434541
详细信息
使用方式:
暂无
2D轨道图
3D轨道图
轨道高度分析图
轨道倾角分析图
轨道综合分析图
查看轨道综合分析图